This demonstration page uses our WeatherBlox Daily Observations layout. Learn more.

Left ArrowRight Arrow

39.92423, -83.80882

Hourly Observations for July 31, 2021

Temp ( °F °C ) Dew Point ( °F °C ) Humidity (%) Winds ( mph kmh ) Pressure ( in mb ) Visibility ( mi km ) Precip ( " mm )
12:56 am 00:56 Clear 67 19.4 66 18.9 97 97 ENE 3 6 30.07 1018 10 16 N/A
1:56 am 01:56 Mostly Clear 66 18.9 66 18.9 100 100 E 3 6 30.06 1018 10 16 N/A
2:56 am 02:56 Clear 66 18.9 65 18.3 96 96 N N/A 30.04 1017 10 16 N/A
3:56 am 03:56 Cloudy 66 18.9 66 18.9 100 100 N N/A 30.05 1018 10 16 0.01 0.25
4:56 am 04:56 Cloudy 65 18.3 65 18.3 100 100 N N/A 30.04 1017 10 16 N/A
5:56 am 05:56 Cloudy 65 18.3 65 18.3 100 100 ENE 3 6 30.04 1017 10 16 N/A
6:56 am 06:56 Mostly Cloudy 64 18 N/A N/A N N/A 30.04 1017 9 14 N/A
7:56 am 07:56 Mostly Cloudy 66 18.9 65 18.3 96 96 E 7 11 30.05 1018 10 16 0.01 0.25
8:56 am 08:56 Partly Cloudy 68 20 63 17.2 84 84 E 9 15 30.06 1018 10 16 N/A
9:56 am 09:56 Sunny 70 21.1 63 17.2 79 79 SE 8 13 30.05 1018 10 16 N/A
10:56 am 10:56 Sunny 71 21.7 63 17.2 76 76 SSE 9 15 30.04 1017 10 16 N/A
11:56 am 11:56 Sunny 73 22.8 64 17.8 74 74 S 6 9 30.03 1017 10 16 N/A
12:56 pm 12:56 Mostly Sunny 74 23.3 65 18.3 74 74 S 6 9 30.04 1017 10 16 0.01 0.25
1:56 pm 13:56 Cloudy 75 23.9 63 17.2 66 66 WSW 10 17 30.04 1017 10 16 N/A
2:56 pm 14:56 Cloudy 74 23.3 66 18.9 76 76 SSW 6 9 30.01 1016 10 16 N/A
3:56 pm 15:56 Partly Cloudy 75 23.9 64 17.8 69 69 WSW 9 15 29.99 1016 10 16 0.01 0.25
4:56 pm 16:56 Cloudy 74 23.3 64 17.8 71 71 WSW 8 13 29.96 1015 10 16 N/A
5:56 pm 17:56 Cloudy 74 23.3 65 18.3 74 74 W 6 9 29.95 1014 10 16 N/A
6:56 pm 18:56 Cloudy 74 23.3 66 18.9 76 76 W 5 7 29.95 1014 10 16 0.01 0.25
7:56 pm 19:56 Sunny 71 21.7 66 18.9 84 84 WSW 6 9 29.95 1014 10 16 N/A
8:56 pm 20:56 Clear 67 19.4 67 19.4 100 100 WSW 7 11 29.96 1014 10 16 N/A
9:56 pm 21:56 Mostly Cloudy 64 18 N/A N/A WSW 6 9 29.96 1015 10 16 0.01 0.25
10:56 pm 22:56 Clear 62 16.7 62 16.7 100 100 WSW 6 9 29.96 1015 10 16 N/A
11:56 pm 23:56 Cloudy 63 17 N/A N/A WSW 5 7 29.95 1014 10 16 N/A

Powered by AerisWeather